Time,TemperatureF,DewpointF,PressureIn,WindDirection,WindDirectionDegrees,WindSpeedMPH,WindSpeedGustMPH,Humidity,HourlyPrecipIn,Conditions,Clouds,dailyrainin,SolarRadiationWatts/m^2,SoftwareType,DateUTC
2013-04-24 00:52:00,71.0,9.0,-100.00,West,272,0.0,10.0,9,-99.99,,,0.00,0.000000,,2013-04-24 07:52:00,
2013-04-24 01:01:00,71.0,9.0,-100.00,West,272,0.0,10.0,9,-99.99,,,0.00,0.000000,,2013-04-24 08:01:00,
2013-04-24 01:11:00,71.0,9.0,-100.00,West,272,0.0,10.0,9,-99.99,,,0.00,0.000000,,2013-04-24 08:11:00,
2013-04-24 01:21:00,71.0,9.0,-100.00,West,272,0.0,10.0,9,-99.99,,,0.00,0.000000,,2013-04-24 08:21:00,
2013-04-24 01:52:00,72.0,10.0,-100.00,NNW,333,4.0,9.0,9,0.00,,,0.00,0.000000,,2013-04-24 08:52:00,
2013-04-24 02:01:00,72.0,10.0,-100.00,NNW,333,4.0,9.0,9,0.00,,,0.00,0.000000,,2013-04-24 09:01:00,
2013-04-24 02:21:00,72.0,10.0,-100.00,NNW,333,4.0,9.0,9,0.00,,,0.00,0.000000,,2013-04-24 09:21:00,
2013-04-24 02:53:00,68.0,14.0,-100.00,NE,36,2.0,12.0,12,0.00,,,0.00,0.000000,,2013-04-24 09:53:00,
2013-04-24 03:02:00,68.0,14.0,-100.00,NE,36,2.0,12.0,12,0.00,,,0.00,0.000000,,2013-04-24 10:02:00,
2013-04-24 03:12:00,68.0,14.0,-100.00,NE,36,2.0,12.0,12,0.00,,,0.00,0.000000,,2013-04-24 10:12:00,
2013-04-24 03:22:00,68.0,14.0,-100.00,NE,36,2.0,12.0,12,0.00,,,0.00,0.000000,,2013-04-24 10:22:00,
2013-04-24 03:53:00,69.0,12.0,-100.00,NNE,13,2.0,7.0,11,0.00,,,0.00,0.000000,,2013-04-24 10:53:00,
2013-04-24 04:02:00,69.0,12.0,-100.00,NNE,13,2.0,7.0,11,0.00,,,0.00,0.000000,,2013-04-24 11:02:00,
2013-04-24 04:11:00,69.0,12.0,-100.00,NNE,13,2.0,7.0,11,0.00,,,0.00,0.000000,,2013-04-24 11:11:00,
2013-04-24 04:21:00,69.0,12.0,-100.00,NNE,13,2.0,7.0,11,0.00,,,0.00,0.000000,,2013-04-24 11:21:00,
2013-04-24 04:52:00,67.0,18.0,-100.00,NNE,29,2.0,6.0,15,0.00,,,0.00,0.000000,,2013-04-24 11:52:00,
2013-04-24 05:02:00,67.0,18.0,-100.00,NNE,29,2.0,6.0,15,0.00,,,0.00,0.000000,,2013-04-24 12:02:00,
2013-04-24 05:11:00,67.0,18.0,-100.00,NNE,29,2.0,6.0,15,0.00,,,0.00,0.000000,,2013-04-24 12:11:00,
2013-04-24 05:22:00,67.0,18.0,-100.00,NNE,29,2.0,6.0,15,0.00,,,0.00,0.000000,,2013-04-24 12:22:00,
2013-04-24 05:52:00,66.0,14.0,-100.00,SSE,166,3.0,7.0,13,0.00,,,0.00,0.000000,,2013-04-24 12:52:00,
2013-04-24 06:01:00,66.0,14.0,-100.00,SSE,166,3.0,7.0,13,0.00,,,0.00,0.000000,,2013-04-24 13:01:00,
2013-04-24 06:52:00,63.0,20.0,-100.00,East,101,0.0,4.0,19,0.00,,,0.00,8.000000,,2013-04-24 13:52:00,
2013-04-24 07:52:00,68.0,34.0,-100.00,ENE,57,0.0,4.0,28,0.00,,,0.00,134.000000,,2013-04-24 14:52:00,
2013-04-24 08:01:00,68.0,34.0,-100.00,ENE,57,0.0,4.0,28,0.00,,,0.00,134.000000,,2013-04-24 15:01:00,
2013-04-24 08:11:00,68.0,34.0,-100.00,ENE,57,0.0,4.0,28,0.00,,,0.00,134.000000,,2013-04-24 15:11:00,
2013-04-24 08:21:00,68.0,34.0,-100.00,ENE,57,0.0,4.0,28,0.00,,,0.00,134.000000,,2013-04-24 15:21:00,
2013-04-24 08:53:00,72.0,34.0,-100.00,NE,45,0.0,3.0,25,0.00,,,0.00,335.000000,,2013-04-24 15:53:00,
2013-04-24 09:03:00,72.0,34.0,-100.00,NE,45,0.0,3.0,25,0.00,,,0.00,335.000000,,2013-04-24 16:03:00,
2013-04-24 09:12:00,72.0,34.0,-100.00,NE,45,0.0,3.0,25,0.00,,,0.00,335.000000,,2013-04-24 16:12:00,
2013-04-24 09:23:00,72.0,34.0,-100.00,NE,45,0.0,3.0,25,0.00,,,0.00,335.000000,,2013-04-24 16:23:00,
2013-04-24 10:52:00,84.0,37.0,-100.00,NW,325,2.0,8.0,19,0.00,,,0.00,832.000000,,2013-04-24 17:52:00,
2013-04-24 11:12:00,84.0,37.0,-100.00,NW,325,2.0,8.0,19,0.00,,,0.00,832.000000,,2013-04-24 18:12:00,
2013-04-24 11:21:00,84.0,37.0,-100.00,NW,325,2.0,8.0,19,0.00,,,0.00,832.000000,,2013-04-24 18:21:00,
2013-04-24 11:52:00,86.0,29.0,-100.00,West,269,0.0,6.0,13,0.00,,,0.00,860.000000,,2013-04-24 18:52:00,
2013-04-24 12:01:00,86.0,29.0,-100.00,West,269,0.0,6.0,13,0.00,,,0.00,860.000000,,2013-04-24 19:01:00,
2013-04-24 12:11:00,86.0,29.0,-100.00,West,269,0.0,6.0,13,0.00,,,0.00,860.000000,,2013-04-24 19:11:00,
2013-04-24 12:21:00,86.0,29.0,-100.00,West,269,0.0,6.0,13,0.00,,,0.00,860.000000,,2013-04-24 19:21:00,
2013-04-24 12:52:00,88.0,27.0,-100.00,WNW,291,1.0,5.0,11,0.00,,,0.00,747.000000,,2013-04-24 19:52:00,
2013-04-24 13:01:00,88.0,27.0,-100.00,WNW,291,1.0,5.0,11,0.00,,,0.00,747.000000,,2013-04-24 20:01:00,
2013-04-24 13:11:00,88.0,27.0,-100.00,WNW,291,1.0,5.0,11,0.00,,,0.00,747.000000,,2013-04-24 20:11:00,
2013-04-24 13:21:00,88.0,27.0,-100.00,WNW,291,1.0,5.0,11,0.00,,,0.00,747.000000,,2013-04-24 20:21:00,
2013-04-24 13:52:00,91.0,24.0,-100.00,NW,314,4.0,6.0,9,0.00,,,0.00,1190.000000,,2013-04-24 20:52:00,
2013-04-24 14:02:00,91.0,24.0,-100.00,NW,314,4.0,6.0,9,0.00,,,0.00,1190.000000,,2013-04-24 21:02:00,
2013-04-24 14:11:00,91.0,24.0,-100.00,NW,314,4.0,6.0,9,0.00,,,0.00,1190.000000,,2013-04-24 21:11:00,
2013-04-24 14:21:00,91.0,24.0,-100.00,NW,314,4.0,6.0,9,0.00,,,0.00,1190.000000,,2013-04-24 21:21:00,
2013-04-24 14:52:00,92.0,22.0,-100.00,NW,326,2.0,9.0,8,0.00,,,0.00,1174.000000,,2013-04-24 21:52:00,
2013-04-24 15:03:00,92.0,22.0,-100.00,NW,326,2.0,9.0,8,0.00,,,0.00,1174.000000,,2013-04-24 22:03:00,
2013-04-24 15:12:00,92.0,22.0,-100.00,NW,326,2.0,9.0,8,0.00,,,0.00,1174.000000,,2013-04-24 22:12:00,
2013-04-24 15:22:00,92.0,22.0,-100.00,NW,326,2.0,9.0,8,0.00,,,0.00,1174.000000,,2013-04-24 22:22:00,
2013-04-24 15:52:00,93.0,23.0,-100.00,SSE,167,6.0,12.0,8,0.00,,,0.00,1013.000000,,2013-04-24 22:52:00,
2013-04-24 16:02:00,93.0,23.0,-100.00,SSE,167,6.0,12.0,8,0.00,,,0.00,1013.000000,,2013-04-24 23:02:00,
2013-04-24 16:12:00,93.0,23.0,-100.00,SSE,167,6.0,12.0,8,0.00,,,0.00,1013.000000,,2013-04-24 23:12:00,
2013-04-24 16:21:00,93.0,23.0,-100.00,SSE,167,6.0,12.0,8,0.00,,,0.00,1013.000000,,2013-04-24 23:21:00,
2013-04-24 16:52:00,93.0,31.0,-100.00,SE,145,5.0,14.0,11,0.00,,,0.00,795.000000,,2013-04-24 23:52:00,
2013-04-24 17:01:00,93.0,31.0,-100.00,SE,145,5.0,14.0,11,0.00,,,0.00,795.000000,,2013-04-25 00:01:00,
2013-04-24 17:12:00,93.0,31.0,-100.00,SE,145,5.0,14.0,11,0.00,,,0.00,795.000000,,2013-04-25 00:12:00,
2013-04-24 17:22:00,93.0,31.0,-100.00,SE,145,5.0,14.0,11,0.00,,,0.00,795.000000,,2013-04-25 00:22:00,
2013-04-24 17:52:00,92.0,30.0,-100.00,SSW,207,12.0,22.0,11,0.00,,,0.00,452.000000,,2013-04-25 00:52:00,
2013-04-24 18:01:00,92.0,30.0,-100.00,SSW,207,12.0,22.0,11,0.00,,,0.00,452.000000,,2013-04-25 01:01:00,
2013-04-24 18:11:00,92.0,30.0,-100.00,SSW,207,12.0,22.0,11,0.00,,,0.00,452.000000,,2013-04-25 01:11:00,
2013-04-24 18:22:00,92.0,30.0,-100.00,SSW,207,12.0,22.0,11,0.00,,,0.00,452.000000,,2013-04-25 01:22:00,
2013-04-24 18:52:00,87.0,24.0,-100.00,SSW,200,13.0,25.0,10,0.00,,,0.00,61.000000,,2013-04-25 01:52:00,
2013-04-24 19:01:00,87.0,24.0,-100.00,SSW,200,13.0,25.0,10,0.00,,,0.00,61.000000,,2013-04-25 02:01:00,
2013-04-24 19:11:00,87.0,24.0,-100.00,SSW,200,13.0,25.0,10,0.00,,,0.00,61.000000,,2013-04-25 02:11:00,
2013-04-24 19:22:00,87.0,24.0,-100.00,SSW,200,13.0,25.0,10,0.00,,,0.00,61.000000,,2013-04-25 02:22:00,
2013-04-24 20:02:00,83.0,25.0,-100.00,South,178,7.0,20.0,12,0.00,,,0.00,21.000000,,2013-04-25 03:02:00,
2013-04-24 20:11:00,83.0,25.0,-100.00,South,178,7.0,20.0,12,0.00,,,0.00,21.000000,,2013-04-25 03:11:00,
2013-04-24 20:21:00,83.0,25.0,-100.00,South,178,7.0,20.0,12,0.00,,,0.00,21.000000,,2013-04-25 03:21:00,
2013-04-24 20:52:00,79.0,24.0,-100.00,South,188,6.0,17.0,13,0.00,,,0.00,0.000000,,2013-04-25 03:52:00,
2013-04-24 21:03:00,79.0,24.0,-100.00,South,188,6.0,17.0,13,0.00,,,0.00,0.000000,,2013-04-25 04:03:00,
2013-04-24 21:12:00,79.0,24.0,-100.00,South,188,6.0,17.0,13,0.00,,,0.00,0.000000,,2013-04-25 04:12:00,
2013-04-24 21:22:00,79.0,24.0,-100.00,South,188,6.0,17.0,13,0.00,,,0.00,0.000000,,2013-04-25 04:22:00,
2013-04-24 21:52:00,78.0,21.0,-100.00,SSW,210,13.0,21.0,12,0.00,,,0.00,0.000000,,2013-04-25 04:52:00,
2013-04-24 22:02:00,78.0,21.0,-100.00,SSW,210,13.0,21.0,12,0.00,,,0.00,0.000000,,2013-04-25 05:02:00,
2013-04-24 22:52:00,76.0,32.0,-100.00,South,179,3.0,18.0,20,0.00,,,0.00,0.000000,,2013-04-25 05:52:00,
2013-04-24 23:01:00,76.0,32.0,-100.00,South,179,3.0,18.0,20,0.00,,,0.00,0.000000,,2013-04-25 06:01:00,
2013-04-24 23:11:00,76.0,32.0,-100.00,South,179,3.0,18.0,20,0.00,,,0.00,0.000000,,2013-04-25 06:11:00,
2013-04-24 23:22:00,76.0,32.0,-100.00,South,179,3.0,18.0,20,0.00,,,0.00,0.000000,,2013-04-25 06:22:00,
2013-04-24 23:52:00,71.0,34.0,-100.00,SW,234,1.0,7.0,26,0.00,,,0.00,0.000000,,2013-04-25 06:52:00,